| time (UTC) | temp C | wind direction | speed KPH | gust KPH | rain 1hr cm | rain 24hr cm | rain mn cm | humidity % | barometer mb |
| 20260906233901 | 22 | 222 | 3.2 | 19.3 | 0.00 | 0.00 | 0.00 | 42 | 1006.6 |
| 20260906232901 | 22 | 217 | 3.2 | 12.9 | 0.00 | 0.00 | 0.00 | 42 | 1006.4 |
| 20260906232401 | 22 | 235 | 0.0 | 8.0 | 0.00 | 0.00 | 0.00 | 42 | 1006.3 |
| 20260906231901 | 22 | 190 | 0.0 | 3.2 | 0.00 | 0.00 | 0.00 | 42 | 1006.3 |
| 20260906225901 | 22 | 218 | 4.8 | 16.1 | 0.00 | 0.00 | 0.00 | 42 | 1006.2 |
| 20260906224901 | 22 | 185 | 1.6 | 8.0 | 0.00 | 0.00 | 0.00 | 41 | 1006.2 |
| 20260906224402 | 22 | 203 | 3.2 | 14.5 | 0.00 | 0.00 | 0.00 | 40 | 1006.4 |
| 20260906223901 | 22 | 204 | 8.0 | 19.3 | 0.00 | 0.00 | 0.00 | 39 | 1006.5 |
| 20260906222903 | 23 | 216 | 4.8 | 25.7 | 0.00 | 0.00 | 0.00 | 38 | 1006.6 |
| 20260906222401 | 23 | 214 | 11.3 | 32.2 | 0.00 | 0.00 | 0.00 | 37 | 1006.5 |
| 20260906221901 | 23 | 238 | 11.3 | 29.0 | 0.00 | 0.00 | 0.00 | 36 | 1006.5 |
| 20260906221401 | 23 | 229 | 6.4 | 29.0 | 0.00 | 0.00 | 0.00 | 37 | 1006.6 |
| 20260906220902 | 24 | 206 | 6.4 | 29.0 | 0.00 | 0.00 | 0.00 | 35 | 1006.7 |
| 20260906220402 | 24 | 228 | 0.0 | 9.7 | 0.00 | 0.00 | 0.00 | 35 | 1006.8 |
| 20260906215401 | 24 | 208 | 1.6 | 14.5 | 0.00 | 0.00 | 0.00 | 35 | 1006.5 |
| 20260906214901 | 24 | 225 | 3.2 | 24.1 | 0.00 | 0.00 | 0.00 | 35 | 1006.4 |
| 20260906213901 | 24 | 207 | 1.6 | 14.5 | 0.00 | 0.00 | 0.00 | 36 | 1006.1 |
| 20260906213402 | 24 | 197 | 6.4 | 19.3 | 0.00 | 0.00 | 0.00 | 36 | 1006.0 |
| 20260906212401 | 24 | 219 | 0.0 | 8.0 | 0.00 | 0.00 | 0.00 | 37 | 1006.0 |
| 20260906211902 | 24 | 230 | 4.8 | 16.1 | 0.00 | 0.00 | 0.00 | 36 | 1006.1 |
| 20260906211402 | 24 | 223 | 12.9 | 29.0 | 0.00 | 0.00 | 0.00 | 35 | 1006.0 |
| 20260906210902 | 24 | 221 | 16.1 | 32.2 | 0.00 | 0.00 | 0.00 | 33 | 1006.0 |
| 20260906210402 | 25 | 210 | 4.8 | 24.1 | 0.00 | 0.00 | 0.00 | 33 | 1005.9 |
| 20260906205903 | 25 | 229 | 8.0 | 25.7 | 0.00 | 0.00 | 0.00 | 33 | 1005.9 |
| 20260906205402 | 25 | 229 | 3.2 | 27.4 | 0.00 | 0.00 | 0.00 | 33 | 1005.8 |
| 20260906204902 | 25 | 221 | 12.9 | 24.1 | 0.00 | 0.00 | 0.00 | 33 | 1005.8 |
| 20260906203902 | 25 | 218 | 6.4 | 29.0 | 0.00 | 0.00 | 0.00 | 33 | 1006.1 |
| 20260906201902 | 25 | 227 | 8.0 | 19.3 | 0.00 | 0.00 | 0.00 | 32 | 1006.2 |
| 20260906201402 | 25 | 229 | 9.7 | 24.1 | 0.00 | 0.00 | 0.00 | 32 | 1006.3 |
| 20260906200901 | 25 | 221 | 3.2 | 22.5 | 0.00 | 0.00 | 0.00 | 32 | 1006.4 |
| 20260906200402 | 25 | 236 | 6.4 | 19.3 | 0.00 | 0.00 | 0.00 | 31 | 1006.4 |
| 20260906195902 | 25 | 220 | 8.0 | 22.5 | 0.00 | 0.00 | 0.00 | 31 | 1006.5 |
| 20260906195401 | 25 | 219 | 3.2 | 14.5 | 0.00 | 0.00 | 0.00 | 31 | 1006.5 |
| 20260906194901 | 25 | 169 | 1.6 | 14.5 | 0.00 | 0.00 | 0.00 | 30 | 1006.7 |
| 20260906193902 | 25 | 213 | 1.6 | 12.9 | 0.00 | 0.00 | 0.00 | 29 | 1006.8 |
| 20260906193402 | 26 | 224 | 6.4 | 19.3 | 0.00 | 0.00 | 0.00 | 28 | 1007.0 |
| 20260906192901 | 26 | 211 | 3.2 | 14.5 | 0.00 | 0.00 | 0.00 | 28 | 1007.0 |
| 20260906192401 | 26 | 221 | 3.2 | 11.3 | 0.00 | 0.00 | 0.00 | 28 | 1007.0 |
| 20260906191902 | 25 | 232 | 0.0 | 11.3 | 0.00 | 0.00 | 0.00 | 28 | 1007.1 |
| 20260906191402 | 26 | 216 | 0.0 | 3.2 | 0.00 | 0.00 | 0.00 | 28 | 1007.2 |
| 20260906190902 | 26 | 228 | 1.6 | 11.3 | 0.00 | 0.00 | 0.00 | 28 | 1007.2 |
| 20260906190402 | 25 | 218 | 8.0 | 14.5 | 0.00 | 0.00 | 0.00 | 28 | 1007.3 |
| 20260906185902 | 26 | 227 | 1.6 | 11.3 | 0.00 | 0.00 | 0.00 | 29 | 1007.4 |
| 20260906184902 | 26 | 233 | 1.6 | 19.3 | 0.00 | 0.00 | 0.00 | 29 | 1007.6 |
| 20260906184401 | 26 | 231 | 4.8 | 22.5 | 0.00 | 0.00 | 0.00 | 29 | 1007.8 |
| 20260906183902 | 26 | 231 | 8.0 | 25.7 | 0.00 | 0.00 | 0.00 | 28 | 1007.8 |
| 20260906183402 | 26 | 219 | 8.0 | 20.9 | 0.00 | 0.00 | 0.00 | 28 | 1008.1 |
| 20260906182902 | 25 | 237 | 6.4 | 19.3 | 0.00 | 0.00 | 0.00 | 29 | 1008.0 |
| 20260906182402 | 25 | 224 | 4.8 | 14.5 | 0.00 | 0.00 | 0.00 | 30 | 1007.9 |
| 20260906181902 | 26 | 214 | 9.7 | 19.3 | 0.00 | 0.00 | 0.00 | 27 | 1008.0 |
| 20260906181402 | 26 | 209 | 9.7 | 12.9 | 0.00 | 0.00 | 0.00 | 27 | 1008.1 |
| 20260906180901 | 26 | 232 | 6.4 | 14.5 | 0.00 | 0.00 | 0.00 | 26 | 1008.1 |
| 20260906180402 | 26 | 223 | 4.8 | 12.9 | 0.00 | 0.00 | 0.00 | 26 | 1008.1 |
| 20260906175401 | 25 | 326 | 0.0 | 4.8 | 0.00 | 0.00 | 0.00 | 28 | 1008.3 |
| 20260906174902 | 26 | 283 | 1.6 | 4.8 | 0.00 | 0.00 | 0.00 | 28 | 1008.4 |
| 20260906174402 | 25 | 260 | 1.6 | 9.7 | 0.00 | 0.00 | 0.00 | 29 | 1008.6 |
| 20260906173402 | 26 | 210 | 0.0 | 4.8 | 0.00 | 0.00 | 0.00 | 27 | 1008.8 |
| 20260906171902 | 24 | 225 | 0.0 | 0.0 | 0.00 | 0.00 | 0.00 | 29 | 1008.8 |
| 20260906171402 | 23 | 225 | 1.6 | 8.0 | 0.00 | 0.00 | 0.00 | 30 | 1008.8 |
| 20260906170402 | 23 | 246 | 0.0 | 4.8 | 0.00 | 0.00 | 0.00 | 29 | 1009.1 |
| 20260906165901 | 23 | 249 | 0.0 | 3.2 | 0.00 | 0.00 | 0.00 | 30 | 1009.0 |
| 20260906165401 | 23 | 250 | 0.0 | 0.0 | 0.00 | 0.00 | 0.00 | 32 | 1009.0 |
| 20260906164902 | 23 | 250 | 0.0 | 0.0 | 0.00 | 0.00 | 0.00 | 33 | 1008.8 |
| 20260906164402 | 23 | 250 | 0.0 | 0.0 | 0.00 | 0.00 | 0.00 | 33 | 1009.0 |
| 20260906163902 | 23 | 252 | 0.0 | 1.6 | 0.00 | 0.00 | 0.00 | 34 | 1008.8 |
| 20260906163402 | 22 | 125 | 0.0 | 0.0 | 0.00 | 0.00 | 0.00 | 32 | 1008.8 |
| 20260906162901 | 22 | 125 | 0.0 | 0.0 | 0.00 | 0.00 | 0.00 | 34 | 1009.0 |
| 20260906162402 | 22 | 125 | 0.0 | 0.0 | 0.00 | 0.00 | 0.00 | 35 | 1009.0 |
| 20260906161902 | 21 | 125 | 0.0 | 0.0 | 0.00 | 0.00 | 0.00 | 36 | 1009.0 |
| 20260906161402 | 21 | 125 | 0.0 | 0.0 | 0.00 | 0.00 | 0.00 | 36 | 1008.9 |
| 20260906160902 | 21 | 125 | 0.0 | 0.0 | 0.00 | 0.00 | 0.00 | 37 | 1008.9 |
| 20260906160402 | 21 | 125 | 0.0 | 0.0 | 0.00 | 0.00 | 0.00 | 36 | 1008.9 |
| 20260906155902 | 21 | 125 | 0.0 | 0.0 | 0.00 | 0.00 | 0.00 | 35 | 1009.1 |
| 20260906155402 | 22 | 125 | 0.0 | 0.0 | 0.00 | 0.00 | 0.00 | 36 | 1009.3 |
| 20260906154902 | 21 | 125 | 0.0 | 0.0 | 0.00 | 0.00 | 0.00 | 36 | 1009.4 |
| 20260906153902 | 21 | 125 | 0.0 | 0.0 | 0.00 | 0.00 | 0.00 | 38 | 1009.5 |
| 20260906152902 | 20 | 125 | 0.0 | 0.0 | 0.00 | 0.00 | 0.00 | 38 | 1009.6 |
| 20260906152402 | 20 | 125 | 0.0 | 0.0 | 0.00 | 0.00 | 0.00 | 40 | 1009.6 |
| 20260906151902 | 19 | 125 | 0.0 | 0.0 | 0.00 | 0.00 | 0.00 | 40 | 1009.6 |
| 20260906151402 | 18 | 125 | 0.0 | 0.0 | 0.00 | 0.00 | 0.00 | 42 | 1009.5 |
| 20260906150902 | 18 | 125 | 0.0 | 0.0 | 0.00 | 0.00 | 0.00 | 43 | 1009.5 |
| 20260906150402 | 17 | 125 | 0.0 | 0.0 | 0.00 | 0.00 | 0.00 | 43 | 1009.6 |
| 20260906145902 | 17 | 125 | 0.0 | 0.0 | 0.00 | 0.00 | 0.00 | 43 | 1009.6 |
| 20260906144402 | 16 | 125 | 0.0 | 0.0 | 0.00 | 0.00 | 0.00 | 45 | 1009.5 |
| 20260906143902 | 16 | 125 | 0.0 | 0.0 | 0.00 | 0.00 | 0.00 | 47 | 1009.6 |
| 20260906143401 | 16 | 125 | 0.0 | 0.0 | 0.00 | 0.00 | 0.00 | 50 | 1009.7 |
| 20260906142402 | 15 | 125 | 0.0 | 0.0 | 0.00 | 0.00 | 0.00 | 53 | 1009.7 |
| 20260906141402 | 13 | 125 | 0.0 | 0.0 | 0.00 | 0.00 | 0.00 | 55 | 1009.5 |
| 20260906140902 | 13 | 125 | 0.0 | 0.0 | 0.00 | 0.00 | 0.00 | 56 | 1009.4 |
| 20260906135902 | 12 | 125 | 0.0 | 0.0 | 0.00 | 0.00 | 0.00 | 56 | 1009.1 |
| 20260906135402 | 12 | 125 | 0.0 | 0.0 | 0.00 | 0.00 | 0.00 | 56 | 1009.0 |
| 20260906134902 | 13 | 0 | 0.0 | 0.0 | 0.00 | 0.00 | 0.00 | 50 | 1009.0 |
| 20260906134402 | 13 | 0 | 0.0 | 0.0 | 0.00 | 0.00 | 0.00 | 50 | 1008.9 |
| 20260906133903 | 13 | 0 | 0.0 | 0.0 | 0.00 | 0.00 | 0.00 | 50 | 1008.9 |
| 20260906133402 | 13 | 0 | 0.0 | 0.0 | 0.00 | 0.00 | 0.00 | 50 | 1008.8 |
| 20260906132902 | 13 | 0 | 0.0 | 0.0 | 0.00 | 0.00 | 0.00 | 50 | 1008.8 |
| 20260906132402 | 13 | 0 | 0.0 | 0.0 | 0.00 | 0.00 | 0.00 | 50 | 1008.7 |
| 20260906131903 | 13 | 0 | 0.0 | 0.0 | 0.00 | 0.00 | 0.00 | 50 | 1008.6 |
| 20260906131402 | 13 | 0 | 0.0 | 0.0 | 0.00 | 0.00 | 0.00 | 50 | 1008.5 |
| 20260906130902 | 13 | 0 | 0.0 | 0.0 | 0.00 | 0.00 | 0.00 | 50 | 1008.5 |
| 20260906130402 | 13 | 0 | 0.0 | 0.0 | 0.00 | 0.00 | 0.00 | 50 | 1008.5 |
| 20260906125402 | 13 | 0 | 0.0 | 0.0 | 0.00 | 0.00 | 0.00 | 50 | 1008.6 |
| 20260906124903 | 13 | 0 | 0.0 | 0.0 | 0.00 | 0.00 | 0.00 | 50 | 1008.6 |
| 20260906124402 | 13 | 0 | 0.0 | 0.0 | 0.00 | 0.00 | 0.00 | 50 | 1008.5 |
| 20260906123902 | 13 | 0 | 0.0 | 0.0 | 0.00 | 0.00 | 0.00 | 50 | 1008.4 |
| 20260906123402 | 13 | 0 | 0.0 | 0.0 | 0.00 | 0.00 | 0.00 | 50 | 1008.5 |
| 20260906122902 | 13 | 0 | 0.0 | 0.0 | 0.00 | 0.00 | 0.00 | 50 | 1008.4 |
| 20260906122403 | 13 | 0 | 0.0 | 0.0 | 0.00 | 0.00 | 0.00 | 50 | 1008.4 |
| 20260906121902 | 13 | 0 | 0.0 | 0.0 | 0.00 | 0.00 | 0.00 | 50 | 1008.4 |
| 20260906121403 | 13 | 0 | 0.0 | 0.0 | 0.00 | 0.00 | 0.00 | 50 | 1008.4 |
| 20260906120902 | 13 | 0 | 0.0 | 0.0 | 0.00 | 0.00 | 0.00 | 50 | 1008.4 |
| 20260906120403 | 13 | 0 | 0.0 | 0.0 | 0.00 | 0.00 | 0.00 | 50 | 1008.5 |
| 20260906115402 | 13 | 0 | 0.0 | 0.0 | 0.00 | 0.00 | 0.00 | 50 | 1008.6 |
| 20260906114902 | 13 | 0 | 0.0 | 0.0 | 0.00 | 0.00 | 0.00 | 50 | 1008.5 |
| 20260906114402 | 13 | 0 | 0.0 | 0.0 | 0.00 | 0.00 | 0.00 | 50 | 1008.6 |
| 20260906113403 | 13 | 0 | 0.0 | 0.0 | 0.00 | 0.00 | 0.00 | 50 | 1008.6 |
| 20260906112902 | 13 | 0 | 0.0 | 0.0 | 0.00 | 0.00 | 0.00 | 50 | 1008.6 |
| 20260906111902 | 13 | 0 | 0.0 | 0.0 | 0.00 | 0.00 | 0.00 | 50 | 1008.7 |
| 20260906111402 | 13 | 0 | 0.0 | 0.0 | 0.00 | 0.00 | 0.00 | 50 | 1008.7 |
| 20260906110902 | 13 | 0 | 0.0 | 0.0 | 0.00 | 0.00 | 0.00 | 50 | 1008.8 |
| 20260906110403 | 13 | 0 | 0.0 | 0.0 | 0.00 | 0.00 | 0.00 | 50 | 1008.9 |
| 20260906105902 | 13 | 0 | 0.0 | 0.0 | 0.00 | 0.00 | 0.00 | 50 | 1009.0 |
| 20260906105403 | 13 | 0 | 0.0 | 0.0 | 0.00 | 0.00 | 0.00 | 50 | 1008.9 |
| 20260906104902 | 13 | 5 | 0.0 | 0.0 | 0.00 | 0.00 | 0.00 | 50 | 1009.0 |
| 20260906104403 | 13 | 125 | 0.0 | 0.0 | 0.00 | 0.00 | 0.00 | 50 | 1009.1 |
| 20260906103902 | 13 | 125 | 0.0 | 0.0 | 0.00 | 0.00 | 0.00 | 50 | 1009.0 |
| 20260906103403 | 13 | 125 | 0.0 | 0.0 | 0.00 | 0.00 | 0.00 | 50 | 1009.0 |
| 20260906102902 | 13 | 125 | 0.0 | 0.0 | 0.00 | 0.00 | 0.00 | 50 | 1009.0 |
| 20260906102403 | 13 | 125 | 0.0 | 0.0 | 0.00 | 0.00 | 0.00 | 49 | 1009.0 |
| 20260906101403 | 13 | 125 | 0.0 | 0.0 | 0.00 | 0.00 | 0.00 | 48 | 1008.8 |
| 20260906100902 | 13 | 125 | 0.0 | 0.0 | 0.00 | 0.00 | 0.00 | 48 | 1008.9 |
| 20260906100403 | 13 | 125 | 0.0 | 0.0 | 0.00 | 0.00 | 0.00 | 48 | 1008.9 |
| 20260906095903 | 14 | 125 | 0.0 | 0.0 | 0.00 | 0.00 | 0.00 | 46 | 1008.8 |
| 20260906095402 | 14 | 125 | 0.0 | 0.0 | 0.00 | 0.00 | 0.00 | 47 | 1008.8 |
| 20260906094903 | 14 | 125 | 0.0 | 0.0 | 0.00 | 0.00 | 0.00 | 46 | 1008.9 |
| 20260906094402 | 14 | 125 | 0.0 | 0.0 | 0.00 | 0.00 | 0.00 | 47 | 1008.9 |
| 20260906093903 | 14 | 125 | 0.0 | 0.0 | 0.00 | 0.00 | 0.00 | 47 | 1008.8 |
| 20260906093402 | 14 | 125 | 0.0 | 0.0 | 0.00 | 0.00 | 0.00 | 46 | 1008.7 |
| 20260906092903 | 14 | 125 | 0.0 | 0.0 | 0.00 | 0.00 | 0.00 | 46 | 1008.8 |
| 20260906092403 | 14 | 125 | 0.0 | 0.0 | 0.00 | 0.00 | 0.00 | 46 | 1008.8 |
| 20260906091902 | 14 | 125 | 0.0 | 0.0 | 0.00 | 0.00 | 0.00 | 45 | 1008.8 |
| 20260906090403 | 15 | 125 | 0.0 | 0.0 | 0.00 | 0.00 | 0.00 | 44 | 1008.6 |
| 20260906084903 | 15 | 125 | 0.0 | 0.0 | 0.00 | 0.00 | 0.00 | 44 | 1008.6 |
| 20260906084403 | 15 | 125 | 0.0 | 0.0 | 0.00 | 0.00 | 0.00 | 44 | 1008.6 |
| 20260906082902 | 15 | 125 | 0.0 | 0.0 | 0.00 | 0.00 | 0.00 | 43 | 1008.7 |
| 20260906082402 | 15 | 125 | 0.0 | 0.0 | 0.00 | 0.00 | 0.00 | 42 | 1008.7 |
| 20260906080903 | 15 | 125 | 0.0 | 0.0 | 0.00 | 0.00 | 0.00 | 42 | 1008.9 |
| 20260906080403 | 15 | 125 | 0.0 | 0.0 | 0.00 | 0.00 | 0.00 | 41 | 1008.8 |
| 20260906075903 | 15 | 125 | 0.0 | 0.0 | 0.00 | 0.00 | 0.00 | 41 | 1008.9 |
| 20260906075402 | 15 | 125 | 0.0 | 0.0 | 0.00 | 0.00 | 0.00 | 40 | 1008.8 |
| 20260906074903 | 15 | 125 | 0.0 | 0.0 | 0.00 | 0.00 | 0.00 | 40 | 1008.8 |
| 20260906074403 | 15 | 125 | 0.0 | 0.0 | 0.00 | 0.00 | 0.00 | 40 | 1008.9 |
| 20260906073903 | 15 | 125 | 0.0 | 0.0 | 0.00 | 0.00 | 0.00 | 40 | 1008.8 |
| 20260906072403 | 16 | 125 | 0.0 | 0.0 | 0.00 | 0.00 | 0.00 | 38 | 1008.9 |
| 20260906071903 | 16 | 125 | 0.0 | 0.0 | 0.00 | 0.00 | 0.00 | 38 | 1008.9 |
| 20260906071403 | 16 | 125 | 0.0 | 0.0 | 0.00 | 0.00 | 0.00 | 38 | 1008.8 |
| 20260906070903 | 16 | 125 | 0.0 | 0.0 | 0.00 | 0.00 | 0.00 | 38 | 1008.8 |
| 20260906070403 | 16 | 125 | 0.0 | 0.0 | 0.00 | 0.00 | 0.00 | 38 | 1008.8 |
| 20260906065903 | 16 | 125 | 0.0 | 0.0 | 0.00 | 0.00 | 0.00 | 38 | 1008.8 |
| 20260906065403 | 16 | 125 | 0.0 | 0.0 | 0.00 | 0.00 | 0.00 | 38 | 1008.8 |
| 20260906064903 | 16 | 125 | 0.0 | 0.0 | 0.00 | 0.00 | 0.00 | 39 | 1008.9 |
| 20260906063903 | 16 | 125 | 0.0 | 0.0 | 0.00 | 0.00 | 0.00 | 38 | 1008.9 |
| 20260906063402 | 16 | 125 | 0.0 | 0.0 | 0.00 | 0.00 | 0.00 | 38 | 1008.8 |
| 20260906062903 | 16 | 125 | 0.0 | 0.0 | 0.00 | 0.00 | 0.00 | 38 | 1008.7 |
| 20260906061903 | 16 | 125 | 0.0 | 0.0 | 0.00 | 0.00 | 0.00 | 38 | 1008.6 |
| 20260906061403 | 16 | 125 | 0.0 | 0.0 | 0.00 | 0.00 | 0.00 | 38 | 1008.5 |
| 20260906060403 | 16 | 125 | 0.0 | 0.0 | 0.00 | 0.00 | 0.00 | 38 | 1008.4 |
| 20260906055903 | 16 | 125 | 0.0 | 0.0 | 0.00 | 0.00 | 0.00 | 37 | 1008.3 |
| 20260906055403 | 16 | 125 | 0.0 | 0.0 | 0.00 | 0.00 | 0.00 | 36 | 1008.2 |
| 20260906054402 | 17 | 125 | 0.0 | 0.0 | 0.00 | 0.00 | 0.00 | 36 | 1008.2 |
| 20260906052903 | 17 | 125 | 0.0 | 0.0 | 0.00 | 0.00 | 0.00 | 35 | 1008.3 |
| 20260906052403 | 17 | 125 | 0.0 | 0.0 | 0.00 | 0.00 | 0.00 | 35 | 1008.3 |
| 20260906051903 | 17 | 125 | 0.0 | 0.0 | 0.00 | 0.00 | 0.00 | 35 | 1008.3 |
| 20260906051403 | 17 | 125 | 0.0 | 0.0 | 0.00 | 0.00 | 0.00 | 35 | 1008.3 |
| 20260906050903 | 17 | 125 | 0.0 | 0.0 | 0.00 | 0.00 | 0.00 | 35 | 1008.3 |
| 20260906050403 | 17 | 125 | 0.0 | 0.0 | 0.00 | 0.00 | 0.00 | 35 | 1008.3 |
| 20260906045403 | 17 | 125 | 0.0 | 0.0 | 0.00 | 0.00 | 0.00 | 34 | 1008.2 |
| 20260906044903 | 17 | 125 | 0.0 | 0.0 | 0.00 | 0.00 | 0.00 | 35 | 1008.2 |
| 20260906044403 | 18 | 125 | 0.0 | 0.0 | 0.00 | 0.00 | 0.00 | 34 | 1008.2 |
| 20260906043904 | 18 | 125 | 0.0 | 0.0 | 0.00 | 0.00 | 0.00 | 33 | 1008.1 |
| 20260906042903 | 18 | 125 | 0.0 | 0.0 | 0.00 | 0.00 | 0.00 | 31 | 1008.0 |
| 20260906042403 | 18 | 125 | 0.0 | 0.0 | 0.00 | 0.00 | 0.00 | 31 | 1008.0 |
| 20260906041904 | 19 | 125 | 0.0 | 0.0 | 0.00 | 0.00 | 0.00 | 31 | 1008.0 |
| 20260906040904 | 19 | 125 | 0.0 | 0.0 | 0.00 | 0.00 | 0.00 | 30 | 1007.9 |
| 20260906040403 | 20 | 125 | 0.0 | 0.0 | 0.00 | 0.00 | 0.00 | 29 | 1007.9 |
| 20260906035903 | 20 | 125 | 0.0 | 0.0 | 0.00 | 0.00 | 0.00 | 29 | 1007.9 |
| 20260906035403 | 20 | 125 | 0.0 | 1.6 | 0.00 | 0.00 | 0.00 | 29 | 1007.8 |
| 20260906033903 | 20 | 125 | 0.0 | 0.0 | 0.00 | 0.00 | 0.00 | 30 | 1007.5 |
| 20260906033403 | 20 | 125 | 0.0 | 0.0 | 0.00 | 0.00 | 0.00 | 30 | 1007.5 |
| 20260906032904 | 20 | 125 | 0.0 | 0.0 | 0.00 | 0.00 | 0.00 | 30 | 1007.4 |
| 20260906032403 | 20 | 125 | 0.0 | 0.0 | 0.00 | 0.00 | 0.00 | 29 | 1007.3 |
| 20260906031903 | 20 | 125 | 0.0 | 0.0 | 0.00 | 0.00 | 0.00 | 29 | 1007.3 |
| 20260906031403 | 20 | 125 | 0.0 | 0.0 | 0.00 | 0.00 | 0.00 | 29 | 1007.2 |
| 20260906030904 | 20 | 125 | 0.0 | 0.0 | 0.00 | 0.00 | 0.00 | 29 | 1007.1 |
| 20260906030403 | 20 | 125 | 0.0 | 0.0 | 0.00 | 0.00 | 0.00 | 28 | 1007.0 |
| 20260906025904 | 21 | 125 | 0.0 | 0.0 | 0.00 | 0.00 | 0.00 | 28 | 1006.8 |
| 20260906025403 | 21 | 125 | 0.0 | 0.0 | 0.00 | 0.00 | 0.00 | 28 | 1006.7 |
| 20260906024903 | 21 | 125 | 0.0 | 0.0 | 0.00 | 0.00 | 0.00 | 27 | 1006.6 |
| 20260906024403 | 21 | 125 | 0.0 | 0.0 | 0.00 | 0.00 | 0.00 | 26 | 1006.6 |
| 20260906023904 | 22 | 125 | 0.0 | 0.0 | 0.00 | 0.00 | 0.00 | 26 | 1006.5 |
| 20260906022904 | 22 | 125 | 0.0 | 0.0 | 0.00 | 0.00 | 0.00 | 25 | 1006.3 |
| 20260906022403 | 22 | 125 | 0.0 | 4.8 | 0.00 | 0.00 | 0.00 | 24 | 1006.3 |
| 20260906021403 | 23 | 271 | 0.0 | 0.0 | 0.00 | 0.00 | 0.00 | 24 | 1006.1 |
| 20260906020904 | 24 | 271 | 0.0 | 0.0 | 0.00 | 0.00 | 0.00 | 24 | 1006.0 |
| 20260906020403 | 24 | 271 | 0.0 | 0.0 | 0.00 | 0.00 | 0.00 | 22 | 1006.0 |
| 20260906015403 | 25 | 271 | 0.0 | 0.0 | 0.00 | 0.00 | 0.00 | 22 | 1005.9 |
| 20260906014904 | 25 | 271 | 0.0 | 0.0 | 0.00 | 0.00 | 0.00 | 21 | 1005.9 |
| 20260906014403 | 25 | 271 | 0.0 | 0.0 | 0.00 | 0.00 | 0.00 | 21 | 1005.8 |
| 20260906013904 | 26 | 271 | 0.0 | 0.0 | 0.00 | 0.00 | 0.00 | 21 | 1005.7 |
| 20260906013403 | 26 | 271 | 0.0 | 0.0 | 0.00 | 0.00 | 0.00 | 22 | 1005.7 |
| 20260906012903 | 26 | 271 | 0.0 | 0.0 | 0.00 | 0.00 | 0.00 | 21 | 1005.6 |
| 20260906012403 | 26 | 271 | 0.0 | 4.8 | 0.00 | 0.00 | 0.00 | 21 | 1005.6 |
| 20260906011903 | 27 | 283 | 0.0 | 0.0 | 0.00 | 0.00 | 0.00 | 21 | 1005.6 |
| 20260906011404 | 27 | 251 | 0.0 | 9.7 | 0.00 | 0.00 | 0.00 | 21 | 1005.6 |
| 20260906010901 | 27 | 243 | 1.6 | 9.7 | 0.00 | 0.00 | 0.00 | 21 | 1005.5 |
| 20260906005901 | 27 | 251 | 3.2 | 12.9 | 0.00 | 0.00 | 0.00 | 20 | 1005.5 |
| 20260906005400 | 28 | 263 | 3.2 | 11.3 | 0.00 | 0.00 | 0.00 | 19 | 1005.4 |
| 20260906004901 | 28 | 246 | 3.2 | 11.3 | 0.00 | 0.00 | 0.00 | 17 | 1005.3 |
| 20260906004401 | 28 | 229 | 3.2 | 14.5 | 0.00 | 0.00 | 0.00 | 18 | 1005.3 |
| 20260906003901 | 28 | 231 | 3.2 | 14.5 | 0.00 | 0.00 | 0.00 | 17 | 1005.3 |
| 20260906003401 | 28 | 219 | 6.4 | 20.9 | 0.00 | 0.00 | 0.00 | 17 | 1005.4 |
| 20260906001901 | 28 | 0 | 0.0 | 0.0 | 0.00 | 0.00 | 0.00 | 18 | 1005.3 |
| 20260906000901 | 28 | 0 | 0.0 | 3.2 | 0.00 | 0.00 | 0.00 | 18 | 1005.4 |
| 20260906000403 | 28 | 105 | 3.2 | 3.2 | 0.00 | 0.00 | 0.00 | 18 | 1005.5 |
| 20260905235901 | 28 | 105 | 3.2 | 4.8 | 0.00 | 0.00 | 0.00 | 18 | 1005.5 |
| 20260905235401 | 28 | 105 | 1.6 | 4.8 | 0.00 | 0.00 | 0.00 | 18 | 1005.6 |